Content
SEND FEEDBACK

Daily
Averages
Monthly
Summary
United States of America

FAYETTEVILLE, TENNESSEE


Home > North America > United States > Tennessee
Elevation: 700 feet     Latitude: 35 10N     Longitude: 086 33W

WEATHER
 
SELECT A DAY
Number of Records: 309,397;   Date Range: 4/22/02 - 12/17/14
 
SHARE

PRINT THIS DATA

[ ← Previous Day ]
WEATHER ALMANAC - JANUARY 11, 2014
[ Next Day → ]
[ °C ]   °F
Weather ElementAverageHighLow
Temperature52.2 °F57.2 °F (2:35 am)35.6 °F (11:15 pm)
Dewpoint44.6 °F55.4 °F (4:35 am)28.4 °F (12:35 pm)
Humidity78.3 %100 % (7:35 am)33 % (12:35 pm)
Barometer29.80 in30.01 in (10:55 pm)29.66 in (3:35 am)
Wind Speed8.2 mph18.4 mph (1:55 am)
Wind Gust27.6 mph (2:15 am)
Weather ElementAverage
Visibility8.9 mi
Wind DirectionSSW (199.1 °)

Weather ElementTotal
Precipitation1.71 in
Heating Degree Days18.6 (Base 65)
Averaged from 45 records on January 11, 2014
WEATHER CONDITIONS BREAKOUT
WIND DIRECTION BREAKOUT
WEATHER BY HOUR - JANUARY 11, 2014
[ °C ]   °F
Local TimeTemperatureDewpointHumidityBarometerVisibilityWind DirectionWind SpeedGust SpeedPrecipitationEventsConditions
12:35 AM55.4 °F53.6 °F94 %29.78 in10.0 miSSE (160°)12.7 mph19.6 mphOvercast
12:55 AM55.4 °F53.6 °F94 %29.76 in10.0 miSouth (170°)11.5 mph21.9 mphThunderstormOvercast
1:15 AM55.4 °F53.6 °F94 %29.75 in10.0 miSSE (160°)13.8 mph21.9 mphOvercast
1:35 AM55.4 °F53.6 °F94 %29.72 in10.0 miSSE (150°)12.7 mphRain-ThunderstormRain
1:55 AM55.4 °F53.6 °F94 %29.70 in4.0 miSSE (150°)18.4 mph23.0 mph0.06 inRain-ThunderstormLight Thunderstorms and Rain
2:15 AM55.4 °F53.6 °F94 %29.76 in7.0 miWSW (240°)11.5 mph27.6 mphRain-ThunderstormHeavy Thunderstorms and Rain
2:35 AM57.2 °F53.6 °F88 %29.74 in5.0 miSSW (200°)13.8 mph25.3 mph0.20 inRain-ThunderstormThunderstorms and Rain
2:55 AM55.4 °F53.6 °F94 %29.72 in7.0 miSSW (200°)11.5 mph0.24 inRain-ThunderstormThunderstorms and Rain
3:15 AM55.4 °F53.6 °F94 %29.71 in4.0 miSouth (180°)9.2 mph0.12 inRain-ThunderstormHeavy Thunderstorms and Rain
3:35 AM55.4 °F53.6 °F94 %29.66 in10.0 miSouth (170°)4.6 mph0.13 inRain-ThunderstormRain
3:55 AM55.4 °F53.6 °F94 %29.70 in1.5 miSSW (200°)8.1 mph0.43 inRain-ThunderstormHeavy Thunderstorms and Rain
4:15 AM55.4 °F53.6 °F94 %29.73 in5.0 miSW (220°)11.5 mph18.4 mph0.07 inRain-ThunderstormHeavy Thunderstorms and Rain
4:35 AM57.2 °F55.4 °F94 %29.71 in5.0 miWest (260°)10.4 mph21.9 mph0.16 inRainHeavy Rain
4:55 AM57.2 °F53.6 °F88 %29.71 in7.0 miWest (270°)9.2 mph0.20 inRainRain
5:15 AM55.4 °F53.6 °F94 %29.75 in10.0 miWest (270°)12.7 mph18.4 mph0.01 inRain-ThunderstormRain
5:35 AM55.4 °F51.8 °F88 %29.74 in7.0 miWest (260°)5.8 mph0.03 inRainHeavy Rain
5:55 AM53.6 °F50.0 °F88 %29.75 in7.0 miSW (230°)6.9 mph0.06 inRainRain
6:15 AM53.6 °F50.0 °F88 %29.72 in10.0 miSSE (150°)5.8 mphRainLight Rain
6:35 AM53.6 °F50.0 °F88 %29.72 in10.0 miSSE (160°)3.5 mphScattered Clouds
6:55 AM53.6 °F51.8 °F94 %29.73 in10.0 miSouth (180°)4.6 mphClear
7:15 AM51.8 °F50.0 °F94 %29.74 in10.0 miSW (220°)5.8 mphClear
7:35 AM51.8 °F51.8 °F100 %29.76 in10.0 miSW (230°)4.6 mphScattered Clouds
7:55 AM53.6 °F51.8 °F94 %29.77 in10.0 miWSW (240°)6.9 mphMostly Cloudy
8:15 AM53.6 °F50.0 °F88 %29.78 in10.0 miWSW (240°)8.1 mphMostly Cloudy
8:35 AM53.6 °F50.0 °F88 %29.80 in10.0 miWest (260°)8.1 mphOvercast
8:55 AM53.6 °F48.2 °F82 %29.81 in10.0 miWest (270°)8.1 mphScattered Clouds
9:15 AM55.4 °F46.4 °F72 %29.81 in10.0 miWest (270°)10.4 mph16.1 mphScattered Clouds
9:35 AM55.4 °F44.6 °F67 %29.82 in10.0 miWNW (290°)12.7 mph17.3 mphScattered Clouds
9:55 AM55.4 °F41.0 °F58 %29.82 in10.0 miWest (280°)9.2 mph19.6 mphClear
10:15 AM55.4 °F35.6 °F47 %29.81 in10.0 miWest (280°)11.5 mphClear
10:35 AM55.4 °F35.6 °F47 %29.81 in10.0 miWNW (290°)12.7 mph16.1 mphClear
10:55 AM55.4 °F32.0 °F41 %29.80 in10.0 miWest (280°)11.5 mph17.3 mphClear
11:15 AM55.4 °F30.2 °F38 %29.79 in10.0 miWest (260°)4.6 mph17.3 mphClear
11:35 AM57.2 °F32.0 °F38 %29.78 in10.0 miWSW (240°)10.4 mphClear
11:55 AM57.2 °F32.0 °F38 %29.76 in10.0 miWest (270°)13.8 mph17.3 mphClear
12:15 PM57.2 °F30.2 °F36 %29.75 in10.0 miWSW (250°)11.5 mph18.4 mphClear
12:35 PM57.2 °F28.4 °F33 %29.74 in10.0 miWest (260°)12.7 mph25.3 mphClear
9:35 PM42.8 °F32.0 °F66 %29.98 in10.0 miWest (270°)4.6 mphClear
9:55 PM42.8 °F32.0 °F66 %29.99 in10.0 miWest (280°)3.5 mphClear
10:15 PM41.0 °F32.0 °F70 %30.00 in10.0 miCalmClear
10:35 PM39.2 °F32.0 °F75 %30.00 in10.0 miCalmClear
10:55 PM37.4 °F32.0 °F81 %30.01 in10.0 miCalmClear
11:15 PM35.6 °F32.0 °F87 %30.01 in10.0 miCalmClear
11:35 PM35.6 °F32.0 °F87 %30.01 in10.0 miCalmClear
11:55 PM35.6 °F32.0 °F87 %30.00 in10.0 miCalmClear
Hourly data recorded from KMDQ, located miles away from Fayetteville, Tennessee







STORIES FROM OUR PARTNERS